Wind_Speed
29 28 27 27 27 27 26 26 27 26 26 26 27 27 26 26 25 22 21 20 20 20 20 21 21 20 18 18 18 18 19 19 19 19 20 20 21 22 23 23 24 24 25 26 26 27 27 28 28 29 30 30 31 32 33 34 35 35 36 37 39 40 41 42 43 43 42 43 45 45 46 47 47 48 48 49 49 50 50 50 50 50 51 51 52
29 29 30 29 29 28 27 27 27 25 24 24 24 23 23 24 24 21 19 19 20 20 21 21 20 19 18 18 19 19 19 19 20 20 21 21 22 23 23 24 24 25 26 26 26 27 27 28 29 29 30 31 32 33 33 34 34 35 36 36 38 40 41 43 45 45 44 43 44 44 45 46 47 48 48 49 49 50 50 50 50 50 51 52 53
29 30 31 30 29 27 26 25 25 24 24 24 24 23 23 23 22 21 20 20 21 22 21 21 20 19 19 19 20 20 20 20 21 21 22 22 23 23 24 24 25 25 26 26 27 27 28 28 29 29 30 31 32 33 33 34 34 35 35 37 38 40 42 44 45 45 45 44 44 44 44 45 46 47 48 48 48 49 49 49 50 51 51 52 54
31 32 30 28 25 23 22 22 23 24 25 25 25 24 23 23 22 22 22 22 22 22 21 21 21 20 21 21 21 21 21 21 22 22 23 23 23 24 24 25 26 26 26 27 27 27 28 29 29 30 31 32 32 32 33 33 34 35 36 38 40 41 42 42 43 44 45 45 45 45 45 46 46 47 47 47 47 47 48 49 50 51 52 54 55
33 32 27 23 21 20 20 21 22 24 25 25 26 26 26 25 24 24 23 23 23 23 22 22 22 22 22 22 22 22 22 23 23 23 23 24 24 25 25 26 26 26 27 27 27 28 28 29 30 31 31 32 32 32 33 34 35 36 37 39 40 40 41 41 42 44 45 45 45 45 46 46 46 46 47 47 47 47 47 48 49 51 53 55 57
32 30 25 23 22 20 20 20 21 23 24 25 26 27 27 26 25 24 24 24 24 24 23 23 23 23 23 23 23 23 23 23 23 23 24 24 25 25 26 26 26 27 27 28 28 28 29 30 30 31 31 31 32 33 34 35 36 37 38 39 40 41 41 42 43 43 44 45 45 46 46 46 46 46 46 46 47 47 48 48 49 52 54 56 58
31 28 26 25 25 23 20 18 20 23 25 27 27 27 27 26 25 25 25 25 25 24 24 24 24 24 24 24 24 24 24 24 24 24 24 25 26 26 27 26 27 27 28 28 29 29 29 30 30 31 31 32 33 34 34 35 36 37 38 39 41 42 42 42 42 43 43 44 45 45 45 45 45 45 45 46 47 47 48 50 51 53 56 59 60
29 28 28 28 28 24 20 19 21 24 27 28 28 28 27 26 26 26 26 26 25 25 25 25 25 25 25 25 24 24 24 24 24 25 25 26 27 27 27 27 27 28 29 29 29 29 29 30 31 31 32 32 33 34 35 36 37 38 39 40 42 42 42 42 42 43 43 43 44 45 45 45 44 45 45 46 46 47 48 51 54 56 59 61 62
29 30 31 30 28 25 21 21 23 25 28 29 29 28 27 27 27 27 27 27 26 26 26 25 25 25 25 25 24 24 25 25 25 26 26 26 27 27 28 28 29 29 29 29 29 29 30 30 31 31 31 33 34 35 36 37 38 39 40 41 42 42 42 42 42 42 43 43 44 44 44 44 44 45 46 46 47 48 50 52 55 58 60 62 62
32 32 31 29 27 25 23 23 24 26 28 29 29 29 28 28 28 28 27 27 27 27 27 26 26 25 25 25 24 25 25 26 26 26 27 28 28 28 29 29 30 30 30 30 29 29 29 30 30 31 32 33 35 36 37 38 38 39 40 41 41 42 42 42 41 42 42 43 44 44 44 44 45 46 46 47 49 50 52 54 57 59 61 63 63
32 30 28 27 26 25 23 24 25 27 28 30 30 29 29 29 29 29 29 29 28 28 27 26 26 25 25 25 25 26 26 27 27 28 28 29 29 29 30 30 30 30 30 29 29 28 29 30 31 32 33 35 36 36 37 37 38 38 39 40 41 41 42 41 41 42 42 43 44 44 44 45 45 46 47 48 49 51 53 55 58 60 62 64 64
28 27 27 27 26 25 24 25 27 29 30 31 31 31 30 30 30 29 30 29 29 28 27 26 26 26 26 26 27 27 27 28 28 29 29 29 29 29 30 30 30 30 29 29 28 28 29 30 31 33 34 36 36 36 36 37 37 37 38 39 40 40 40 40 41 42 43 43 44 44 44 45 45 46 47 49 50 52 54 56 58 60 62 63 65
26 27 28 28 27 26 25 26 28 30 32 32 33 32 31 30 30 30 30 30 29 28 27 27 27 27 28 28 28 29 29 29 29 29 30 29 29 30 30 30 30 29 29 29 28 28 29 31 32 34 35 36 36 36 37 36 36 36 37 38 38 38 38 39 41 42 43 43 44 44 44 45 45 46 47 49 51 52 54 56 58 60 61 63 64
29 29 30 29 29 29 29 28 28 31 33 33 33 32 31 31 31 31 31 30 28 27 27 28 28 29 29 29 30 30 30 30 30 30 31 30 30 30 30 30 30 30 30 29 29 29 30 32 33 34 35 36 37 37 37 36 35 35 36 36 36 37 37 39 40 41 41 42 43 43 44 44 45 46 47 49 51 52 54 56 58 60 62 63 65
32 32 32 32 31 31 32 31 30 32 34 34 33 32 31 31 31 31 31 29 29 29 29 30 30 30 30 31 32 33 32 32 32 32 32 31 30 31 31 31 31 31 31 30 30 30 31 32 33 34 36 37 37 38 37 35 34 34 35 35 35 35 36 38 39 40 40 41 41 42 42 43 43 45 47 48 51 52 54 56 58 60 61 62 64
34 35 34 34 34 34 33 32 31 32 34 34 34 33 32 32 31 31 31 30 30 30 30 30 31 31 32 33 34 35 34 34 34 34 33 32 31 32 32 32 32 32 31 31 30 31 31 32 33 35 36 38 38 39 38 35 33 33 34 34 34 34 36 37 38 39 40 40 41 41 41 42 43 45 47 48 50 52 53 55 57 59 60 61 63
34 35 35 35 35 34 34 33 33 34 35 36 35 33 33 32 32 32 32 32 32 31 31 32 33 34 35 35 36 37 37 36 36 36 35 34 33 33 33 33 33 32 32 31 31 31 31 33 34 35 37 38 38 39 38 34 32 33 33 33 33 34 35 37 38 39 39 40 40 40 41 42 43 44 46 48 50 51 53 54 56 58 60 62 63
33 34 34 34 34 34 34 35 35 36 37 37 35 34 34 34 33 33 33 33 34 34 34 36 36 36 37 37 37 38 39 38 38 38 37 35 35 35 34 34 33 33 33 32 32 32 32 33 35 35 37 37 37 38 37 34 31 32 32 32 32 33 35 36 37 38 38 39 39 40 40 41 42 44 46 47 49 50 52 54 56 58 61 62 64
32 32 32 33 33 34 35 36 36 37 37 38 37 36 35 35 35 35 35 35 36 37 38 38 38 38 38 38 39 40 40 41 40 39 39 37 36 36 36 35 34 34 34 34 33 33 33 34 35 36 37 37 37 37 36 33 31 31 31 32 32 34 35 36 36 37 37 38 38 39 39 41 42 43 44 46 48 49 51 54 56 58 61 62 64
30 31 32 33 34 35 36 37 37 37 37 38 39 38 38 38 38 37 37 38 39 39 40 40 40 40 40 41 41 42 42 43 42 41 40 39 38 38 37 36 36 36 36 35 34 34 34 34 35 36 37 37 36 36 36 33 30 30 31 32 33 34 35 36 36 37 37 37 38 38 39 40 41 43 44 46 47 49 51 54 56 59 61 62 63
30 31 33 34 35 36 36 37 37 37 37 39 40 41 42 41 40 39 40 41 41 42 42 42 42 42 43 43 44 44 44 44 43 42 41 40 39 39 38 38 38 38 37 36 35 34 34 35 36 37 38 37 36 36 35 33 30 30 31 32 33 33 35 36 37 38 38 38 39 39 39 40 42 43 45 46 48 49 51 53 56 58 60 61 61
31 33 34 34 35 36 37 38 38 38 39 40 41 42 42 42 42 42 43 44 44 44 44 44 44 45 45 46 46 45 45 45 44 43 42 41 41 40 40 40 40 39 37 36 35 35 35 35 36 37 38 37 36 35 35 33 31 31 32 33 33 33 35 37 38 38 38 38 39 39 40 41 42 43 45 46 48 49 50 52 55 58 60 59 58
33 34 35 36 37 37 37 38 39 39 40 41 41 42 42 43 44 45 45 46 46 46 46 46 47 47 47 47 47 46 46 45 44 44 43 42 42 41 41 41 41 39 37 36 36 36 36 36 37 38 38 36 35 35 34 32 31 31 32 33 33 34 35 37 38 38 38 38 39 39 40 40 41 42 44 45 47 48 50 52 55 57 58 56 54
33 34 34 35 36 36 37 38 39 40 41 42 42 43 43 45 45 46 47 47 47 48 48 48 48 48 48 48 47 47 47 46 45 44 44 44 44 43 43 43 42 40 38 37 36 36 36 37 37 38 37 36 35 34 33 32 31 31 32 32 33 34 36 37 38 38 37 38 38 39 39 40 40 41 43 45 46 48 49 52 55 56 57 54 51
32 33 33 34 35 36 37 38 39 40 41 42 43 43 44 45 46 46 47 48 48 49 49 49 49 49 48 48 47 47 47 46 46 45 45 45 46 45 44 43 43 41 38 37 37 37 36 37 38 37 37 36 35 34 33 32 31 31 31 32 32 34 36 37 37 37 37 38 38 38 38 39 39 41 43 45 46 48 49 51 54 55 55 52 49
33 33 34 34 35 36 37 37 38 40 41 42 43 43 44 45 45 46 48 48 48 49 48 48 49 48 48 47 47 47 47 47 46 46 46 47 48 47 45 44 42 40 39 38 38 37 37 38 38 37 36 35 34 34 33 32 31 31 31 31 32 34 36 37 37 36 36 37 37 37 37 38 39 41 43 45 46 48 49 50 52 53 53 51 47
33 34 34 35 36 37 37 38 39 40 41 42 43 43 44 45 45 46 47 46 47 47 47 47 47 47 46 45 44 45 46 46 46 46 47 48 48 47 46 44 42 40 40 39 38 37 37 38 37 36 36 35 34 33 33 32 31 31 31 31 32 34 36 36 36 36 36 36 36 36 36 37 39 40 42 44 46 47 48 50 51 52 52 50 48
34 35 35 36 37 38 38 39 39 40 41 42 43 43 44 44 45 45 44 44 44 44 45 45 45 44 44 43 44 45 46 46 46 46 47 48 48 46 45 44 42 41 41 40 38 37 38 38 37 36 36 35 34 33 32 31 31 31 31 31 33 34 36 36 36 35 35 34 35 35 36 37 38 40 41 43 45 47 48 50 51 51 51 50 48
35 36 36 38 38 39 39 40 41 41 42 42 43 43 43 43 44 43 42 42 42 43 43 44 44 44 44 45 45 46 47 47 46 45 47 48 48 47 47 45 44 44 43 41 39 38 38 37 36 36 35 35 34 33 32 31 31 30 30 32 33 35 36 36 36 35 34 34 34 35 36 37 38 40 41 42 44 46 47 49 50 51 50 49 47
36 36 37 38 38 39 40 41 41 42 42 42 42 43 43 43 43 42 42 41 41 41 42 43 43 43 44 45 45 46 47 46 46 47 50 51 50 50 49 48 47 46 45 42 40 39 38 37 36 36 36 35 34 33 32 31 30 30 31 32 34 35 36 36 35 34 34 34 35 35 35 36 38 39 40 41 42 44 46 48 49 50 49 48 46
37 37 38 39 39 41 42 41 42 42 42 42 43 43 43 43 43 42 41 41 41 41 41 41 42 42 43 44 44 45 46 47 48 50 52 52 52 52 52 51 50 48 45 43 42 40 39 38 37 37 36 35 34 33 32 31 30 30 32 33 34 35 35 35 34 33 33 34 34 35 35 36 37 38 39 40 41 43 45 46 48 49 49 47 45
37 37 37 38 39 41 42 41 41 42 41 41 42 42 42 42 41 40 39 39 39 39 39 40 42 42 43 44 45 46 47 47 48 49 51 52 54 54 54 53 51 48 46 46 44 41 38 38 38 37 36 35 34 33 32 31 30 31 32 33 34 34 35 34 33 32 33 33 34 35 35 36 36 37 39 40 41 42 43 45 46 48 48 46 44
38 37 37 38 39 39 40 39 39 39 39 39 39 40 40 40 39 38 38 39 39 40 40 41 43 44 45 46 46 47 47 46 46 47 49 52 54 55 55 54 51 49 49 49 45 41 38 38 38 37 36 35 34 33 32 31 31 32 33 34 34 35 34 34 32 32 32 33 33 34 35 35 35 36 38 39 41 41 43 44 45 47 47 46 43
39 38 38 38 39 39 39 38 38 38 38 39 39 40 40 39 39 39 40 41 42 42 43 44 45 46 47 47 47 47 47 46 45 45 47 50 52 54 55 53 51 51 51 49 45 40 37 37 38 37 36 35 34 33 32 31 31 32 33 34 35 35 34 33 32 31 31 32 33 34 34 34 34 35 37 39 40 41 42 43 45 46 47 46 44
38 37 37 38 39 40 39 39 38 38 38 38 39 40 40 40 41 42 43 45 45 46 47 47 47 48 48 48 48 47 45 44 43 43 44 47 50 53 54 53 51 50 50 48 43 38 36 37 38 37 35 35 34 33 32 31 31 32 33 34 34 34 33 32 31 30 31 32 33 33 34 34 34 35 36 38 39 40 41 42 44 45 46 46 44
37 37 37 38 39 40 40 39 39 39 39 39 40 42 43 44 45 46 47 49 50 50 50 49 49 49 49 50 49 47 44 43 43 43 44 46 48 52 53 52 49 48 49 47 42 37 36 37 38 36 35 35 34 33 32 31 31 32 33 34 33 33 32 31 30 30 31 32 32 33 33 33 33 34 35 37 39 40 41 42 43 44 45 45 44
39 38 38 38 38 39 39 40 40 40 41 42 44 45 47 48 50 50 50 51 52 52 51 50 50 49 50 50 49 46 43 41 42 43 45 46 48 51 52 50 46 45 46 44 41 39 38 38 37 36 35 35 35 33 31 31 32 32 33 33 32 32 31 30 29 30 31 31 32 32 33 33 32 33 35 36 38 39 40 41 42 43 44 45 44
42 41 39 38 39 40 41 42 42 43 44 45 45 46 47 49 50 51 50 50 50 50 50 50 50 49 49 48 46 44 42 42 42 44 46 47 48 49 49 46 43 42 42 42 40 39 38 37 37 36 36 36 34 32 31 32 32 33 33 32 32 32 31 29 29 30 30 31 31 32 32 32 32 32 34 35 36 38 39 40 41 42 43 44 44
42 42 41 40 41 42 42 42 42 42 42 42 42 42 43 44 45 46 46 46 47 47 48 48 48 48 47 45 44 44 44 44 45 45 45 45 45 44 44 42 39 38 39 39 39 38 37 36 36 36 36 35 34 32 32 32 32 33 33 32 32 31 30 29 29 29 30 30 31 30 30 30 31 32 33 34 35 37 38 39 40 41 42 43 43
41 41 40 40 40 40 40 40 40 40 39 38 37 38 38 39 40 41 42 43 44 45 45 46 46 46 45 44 44 44 44 45 44 43 42 42 41 40 40 38 36 34 35 36 36 36 36 36 36 36 36 35 33 32 32 32 32 32 32 32 31 31 29 28 28 29 30 30 30 29 29 29 30 31 32 33 34 36 37 38 40 40 41 42 43
39 39 37 37 37 37 37 37 37 36 35 35 35 36 36 36 37 38 40 41 41 42 42 43 44 44 43 43 43 43 43 44 44 43 42 40 39 39 38 36 33 31 32 34 35 35 36 37 37 36 36 34 33 33 32 32 32 32 32 31 31 30 28 27 28 29 30 30 29 29 29 29 29 31 32 33 34 35 36 38 39 39 40 41 42
38 36 35 34 34 35 35 34 33 33 33 34 34 34 34 35 36 37 38 38 39 40 41 42 42 41 41 40 40 41 42 43 43 43 42 41 39 38 37 34 32 31 32 34 35 35 36 37 37 36 35 34 33 33 33 32 32 32 31 31 30 29 27 27 28 29 30 29 29 28 28 28 29 30 31 32 33 34 35 37 37 38 39 40 41
37 35 34 33 33 33 33 32 32 33 33 33 33 33 34 35 36 37 37 38 39 40 41 40 38 37 36 36 36 37 39 40 40 41 41 40 39 37 35 33 31 31 33 35 35 36 37 38 37 36 35 34 34 33 33 32 32 32 31 30 30 28 27 28 29 29 29 28 28 28 27 28 28 29 30 31 32 33 35 36 36 37 38 39 40
36 35 34 33 33 33 33 33 33 33 33 33 33 34 34 35 36 36 37 38 38 38 37 35 33 33 33 32 33 34 35 36 36 37 38 38 37 36 33 32 31 32 35 36 35 36 38 38 36 35 35 35 34 33 33 32 32 31 31 30 29 28 27 28 28 28 28 27 27 27 27 27 27 28 29 30 31 33 34 35 35 36 37 37 39
35 33 33 32 32 32 32 32 32 33 33 33 34 34 34 34 35 36 37 38 37 37 35 34 33 33 33 32 32 33 33 34 34 35 36 36 36 35 33 31 31 33 34 35 35 37 37 37 36 35 35 35 34 33 32 32 31 31 31 30 29 28 28 28 28 28 27 27 26 26 26 26 27 27 28 29 30 32 33 34 34 35 36 36 37
32 31 30 29 29 29 29 30 31 31 31 31 32 32 33 34 35 36 38 38 38 38 37 36 35 34 34 33 33 33 33 33 33 34 34 35 35 34 32 31 32 33 34 35 35 36 37 36 36 36 35 35 34 33 32 32 31 31 31 30 29 28 28 28 28 28 27 27 26 26 26 26 26 26 27 28 29 30 32 33 33 34 35 35 36
29 27 26 26 26 27 27 28 29 29 29 30 30 31 32 33 34 35 36 37 37 37 37 36 36 36 35 34 34 34 34 33 33 33 34 34 33 33 32 32 33 34 35 35 36 37 37 37 37 36 36 35 34 33 32 31 31 31 31 30 29 28 28 28 28 28 27 26 26 26 25 25 25 26 26 27 28 29 30 31 32 33 34 34 34
25 24 24 25 25 26 27 28 28 29 29 29 30 30 30 31 32 34 35 36 37 37 37 37 37 36 36 36 36 35 34 34 33 33 33 33 33 33 33 33 34 35 36 37 37 37 38 38 37 36 35 35 33 33 32 32 31 31 31 30 29 29 29 29 29 28 27 26 26 26 25 24 25 25 26 26 27 28 29 30 31 32 32 33 33
24 24 24 25 25 26 27 27 28 28 29 29 30 30 30 31 32 32 33 35 36 36 36 36 36 36 36 36 36 35 34 34 33 33 34 34 34 34 34 35 36 37 38 38 38 38 38 38 37 36 35 34 33 33 32 32 31 31 31 30 29 29 29 29 29 28 26 26 26 25 24 24 24 25 26 26 26 27 28 29 29 30 31 31 32
24 24 25 25 25 26 26 27 27 28 28 29 30 30 30 31 31 31 32 33 34 34 35 35 35 35 35 34 34 33 33 33 33 33 34 34 34 34 34 36 37 39 39 39 39 39 38 38 37 36 35 34 33 33 32 32 31 31 31 30 30 29 29 29 29 27 26 26 26 25 24 24 24 25 25 25 26 26 27 28 28 29 30 30 31
25 26 26 26 26 26 26 26 27 28 28 29 30 30 30 30 29 29 30 30 31 32 33 33 33 33 33 33 33 33 33 33 34 34 34 35 35 35 35 36 38 40 40 40 40 39 38 37 36 36 35 34 33 33 32 32 32 31 31 30 30 30 30 29 29 28 27 26 26 25 24 24 24 24 24 25 25 26 26 27 28 28 29 30 31
Wind_Direction
231 229 226 223 224 230 236 240 245 248 250 250 249 250 250 249 246 239 232 229 231 236 238 240 242 244 249 255 260 264 266 269 272 274 276 278 279 281 283 284 285 286 288 289 290 291 293 295 297 299 301 302 304 305 305 306 307 308 309 309 309 309 310 311 313 316 318 319 319 319 318 318 317 317 315 315 313 312 310 310 309 308 307 308 311
228 226 226 226 228 232 237 240 243 246 250 252 252 252 251 249 246 242 237 234 234 236 238 240 244 248 253 259 264 267 270 272 274 275 277 278 280 283 285 286 287 287 288 289 291 293 295 297 299 301 302 303 303 304 305 306 307 308 309 309 310 311 312 314 316 317 319 320 319 318 318 317 316 315 314 313 311 310 309 308 308 308 309 311 313
226 227 229 231 231 232 233 236 239 244 250 254 255 253 247 241 241 244 244 238 235 237 240 244 248 252 257 262 266 270 271 273 275 276 277 280 283 286 287 287 287 288 289 291 293 295 296 298 299 300 301 301 302 303 305 306 307 309 310 311 312 314 316 317 318 318 318 318 318 317 316 315 314 313 311 310 310 309 308 308 308 310 312 314 316
226 229 231 232 232 233 236 240 243 247 250 251 249 246 240 237 240 245 243 238 238 242 246 249 252 256 260 265 268 270 272 275 276 277 279 282 285 287 287 287 287 289 291 292 294 296 297 298 299 299 299 299 301 303 305 307 309 310 312 314 316 318 319 318 318 317 317 316 316 315 314 313 312 311 310 309 309 308 308 308 310 313 315 317 318
227 231 233 233 235 239 243 245 245 245 244 241 237 235 234 235 237 239 238 238 242 247 250 252 255 259 263 267 269 271 273 275 277 278 280 283 285 286 286 287 288 290 292 294 295 296 296 297 297 297 298 300 302 305 307 309 311 313 316 318 319 319 318 317 317 316 315 314 314 313 313 312 311 310 309 309 308 308 309 311 314 316 317 318 318
231 234 235 237 239 245 248 245 241 240 237 234 231 229 230 232 233 235 237 241 245 249 251 254 257 261 265 268 270 273 274 277 278 280 281 283 284 285 286 287 290 292 293 294 294 294 295 295 296 297 300 302 305 306 308 311 314 317 320 320 319 318 317 317 316 315 314 313 312 311 311 311 310 310 309 309 308 309 311 314 317 319 319 319 320
235 238 239 241 244 250 255 247 238 235 233 231 230 229 229 230 233 236 239 243 246 249 251 255 258 262 266 268 271 274 276 279 280 281 281 282 284 285 286 289 291 292 293 292 292 292 293 295 297 300 302 304 305 307 309 314 318 321 321 319 318 317 316 316 315 313 312 311 310 310 311 311 310 310 309 309 310 312 315 317 319 320 321 321 322
236 240 242 245 250 256 259 251 238 233 232 231 230 229 229 230 234 238 241 244 246 248 252 255 259 263 266 270 273 276 278 280 281 281 281 282 284 286 288 290 291 291 291 291 291 293 295 297 299 301 303 304 305 309 313 318 320 320 319 318 316 315 315 314 313 311 310 310 311 311 311 311 311 310 310 310 312 316 319 321 322 323 323 323 324
238 244 246 250 254 257 258 253 242 235 233 233 231 230 230 233 236 240 243 245 246 249 252 256 260 265 269 273 276 278 279 281 282 282 283 283 285 287 289 290 290 290 290 290 292 294 296 298 300 301 303 305 307 312 316 319 319 319 318 316 314 314 313 312 311 310 310 311 312 312 311 312 311 310 311 314 317 321 323 324 324 324 324 323 324
240 246 250 252 253 255 258 255 245 237 235 234 233 232 233 236 239 242 244 245 246 250 254 258 263 268 273 276 278 279 281 282 284 285 285 285 287 287 288 288 288 288 289 290 293 295 297 299 301 303 305 306 310 314 317 318 318 318 317 314 313 312 311 311 310 311 312 313 313 313 312 312 312 313 316 319 322 325 325 326 325 324 324 323 324
240 245 248 250 251 254 258 256 246 238 235 234 233 234 236 239 242 244 245 245 248 251 256 261 266 271 275 278 279 281 283 284 285 285 285 285 285 286 286 286 286 287 289 291 294 297 299 301 303 304 306 308 312 315 316 317 317 316 315 313 312 312 311 311 312 313 314 314 314 313 313 313 315 317 320 322 324 325 326 326 325 324 324 324 326
236 241 246 249 252 254 256 254 246 237 233 234 234 236 238 241 243 245 246 247 250 254 259 264 270 274 276 278 279 281 282 283 283 284 283 284 285 286 286 285 285 288 291 294 297 299 301 302 303 304 307 309 312 314 314 315 315 314 313 312 311 311 312 313 313 314 315 315 314 314 314 316 318 320 322 324 325 326 327 326 325 324 325 327 329
237 241 246 250 253 254 255 254 247 238 233 234 236 238 241 243 245 247 248 250 253 258 263 268 271 273 274 276 278 280 281 282 283 284 285 286 288 288 286 286 287 290 293 296 298 301 301 302 303 305 308 310 311 311 312 312 313 312 311 310 311 311 312 313 314 314 315 314 314 316 317 318 320 322 323 324 325 326 326 326 325 326 327 329 331
242 244 247 249 252 253 253 253 247 239 235 235 238 241 243 244 246 248 250 253 257 261 265 267 269 271 274 277 279 280 281 283 285 286 287 289 289 289 287 288 290 293 295 297 299 301 301 302 304 306 307 308 309 309 309 311 311 310 309 309 310 311 312 313 313 314 315 315 316 317 317 318 320 322 323 324 325 326 326 326 326 327 329 331 333
242 244 245 246 248 249 250 250 246 240 237 237 240 243 245 246 247 250 253 256 260 262 264 266 269 273 276 278 279 281 282 284 286 287 288 289 290 290 290 292 294 294 295 298 299 300 301 302 304 306 306 307 307 307 308 309 309 308 307 308 309 311 312 312 314 315 314 314 315 315 317 318 320 321 323 324 325 326 326 327 327 329 330 332 332
242 243 243 244 244 245 247 248 246 242 238 238 241 244 246 248 249 251 254 256 259 262 265 269 273 275 276 277 279 282 283 284 285 287 288 290 291 291 293 294 295 295 296 297 297 298 300 301 303 305 305 305 306 306 306 307 307 306 306 308 309 311 312 313 315 315 314 314 315 316 317 319 320 323 324 325 326 326 327 328 328 329 330 331 330
241 243 243 243 243 243 245 246 245 242 238 238 242 245 248 249 249 251 254 257 261 264 268 270 271 272 274 276 279 282 283 284 285 287 288 289 290 292 293 294 295 295 295 295 296 297 299 301 303 304 304 304 304 304 304 305 305 305 305 307 310 312 313 314 314 314 313 314 315 316 318 320 322 324 325 325 326 326 327 328 329 330 330 330 329
241 242 243 243 243 244 245 246 245 242 239 239 242 245 248 250 251 252 255 257 261 263 265 266 268 271 274 277 279 281 282 283 284 285 287 288 290 291 292 293 294 295 295 295 296 297 298 300 301 302 302 302 302 301 302 302 303 304 305 308 311 312 313 313 314 313 313 315 316 317 319 321 323 325 325 325 326 328 329 330 330 331 331 330 328
240 241 242 243 244 243 244 245 244 243 241 240 242 245 248 250 251 252 254 256 259 261 263 266 269 272 274 275 277 279 281 282 283 284 286 287 288 290 291 292 294 294 295 295 295 296 297 298 300 300 300 301 300 299 299 301 302 303 306 309 311 311 312 313 313 313 314 315 316 317 319 322 324 325 325 326 327 329 330 330 331 331 331 330 328
240 241 241 242 241 241 242 243 244 244 242 242 243 245 247 249 250 252 254 257 260 262 264 267 269 271 272 273 275 277 279 280 281 283 284 286 287 289 290 292 292 293 294 294 294 296 296 297 298 299 299 299 299 297 298 300 301 304 306 308 309 310 312 313 314 314 314 316 316 318 321 323 324 325 326 328 330 331 331 331 332 331 330 330 329
243 242 242 242 242 243 243 244 244 244 242 242 243 244 246 249 251 253 256 258 260 262 264 266 267 269 271 272 274 275 277 279 280 282 283 285 287 288 289 290 290 291 292 293 294 294 295 296 297 298 299 299 298 296 297 299 301 304 306 306 308 311 313 314 315 315 316 317 318 320 322 324 326 327 328 330 331 332 332 332 332 332 331 330 330
247 246 246 246 246 246 245 245 245 244 242 242 243 244 246 249 251 254 256 258 260 261 263 265 266 267 269 271 272 274 276 277 279 281 283 284 285 286 286 286 287 288 290 292 293 294 294 295 296 298 299 299 297 296 297 299 301 304 305 305 309 313 315 316 316 316 317 318 319 321 324 326 327 328 330 331 332 332 332 333 333 332 331 331 331
247 247 247 248 248 249 249 249 248 247 247 246 246 246 246 247 249 252 254 256 258 260 261 263 264 266 267 269 271 274 275 277 279 280 281 282 282 283 283 283 285 286 288 290 292 293 293 294 295 297 298 298 297 296 296 298 300 302 304 306 311 315 317 317 316 316 317 317 319 322 325 327 328 329 330 331 331 332 333 334 333 332 332 332 332
245 246 247 248 248 249 250 251 251 251 251 250 249 249 248 248 248 250 252 254 256 257 259 261 262 264 266 268 270 272 274 276 277 279 280 280 281 280 280 281 283 284 285 288 290 291 292 293 295 297 297 297 296 295 295 296 299 301 303 307 312 316 317 316 315 315 316 317 320 323 325 327 328 329 330 331 331 333 334 335 334 333 333 333 332
247 247 247 247 248 248 249 249 250 251 252 252 253 252 252 252 251 252 253 254 255 257 258 260 261 263 265 267 269 271 272 274 275 276 278 279 279 278 277 279 281 282 283 286 288 288 289 291 294 296 297 296 295 294 293 294 297 300 304 308 313 316 315 314 314 315 316 317 320 323 324 327 328 329 331 331 331 334 336 335 334 334 333 334 333
251 251 251 251 250 250 250 250 250 251 252 253 254 254 255 255 255 255 255 256 257 258 259 260 262 264 265 267 269 270 271 273 274 275 277 276 276 277 277 278 279 280 281 283 284 285 287 289 292 294 296 295 294 292 292 294 297 301 304 309 313 314 313 313 312 313 315 316 319 322 324 327 329 330 331 332 332 334 336 335 334 333 333 333 333
257 257 257 257 255 255 255 254 254 254 254 255 255 256 257 257 258 258 259 261 263 264 265 266 266 267 269 270 271 271 272 273 273 274 275 276 277 278 278 277 276 277 279 281 281 283 285 287 290 293 295 294 293 291 291 293 297 300 304 309 312 312 311 311 311 311 314 316 319 322 324 327 329 331 332 332 333 335 335 334 334 334 333 334 333
260 260 260 259 259 258 258 257 257 257 257 258 258 259 259 260 261 262 263 265 266 267 268 269 269 269 271 271 270 270 270 270 271 273 275 277 277 276 275 273 273 275 277 278 278 281 282 284 288 292 294 293 291 289 290 292 295 300 304 308 310 310 309 309 309 310 313 316 319 322 325 327 330 332 332 332 333 334 334 334 334 334 334 334 333
260 259 258 258 258 259 259 259 259 260 260 260 261 261 261 261 262 263 263 263 264 265 265 266 267 267 267 266 265 265 266 268 270 272 273 273 272 271 270 269 271 274 275 275 277 279 280 281 285 290 293 292 290 288 289 292 295 300 305 308 308 308 307 307 308 310 313 316 320 323 326 329 331 332 332 333 334 334 334 334 334 334 334 334 333
263 262 262 261 261 260 260 260 260 261 261 261 261 261 260 260 261 261 261 261 262 262 263 264 264 264 263 264 264 264 265 265 265 265 265 265 266 266 266 266 269 272 273 274 276 277 278 279 284 289 292 292 290 289 289 292 297 302 305 306 306 305 305 306 307 311 314 317 320 323 326 329 330 330 331 333 334 334 333 333 334 334 335 335 334
265 265 266 266 266 264 263 262 262 262 262 261 261 261 261 261 261 261 262 262 262 262 262 263 263 263 263 264 264 264 264 263 260 260 261 262 263 263 263 265 269 272 272 273 274 275 277 279 282 287 292 292 290 289 290 293 298 301 302 303 304 304 304 305 307 311 314 317 320 323 326 328 329 330 331 333 334 333 333 334 334 334 335 336 335
268 269 269 269 268 267 267 266 265 265 264 264 264 264 264 264 265 264 264 264 263 262 262 262 262 263 264 264 264 263 263 262 260 260 261 261 261 261 262 266 270 271 270 271 272 273 275 277 280 285 291 292 290 289 290 293 297 299 300 302 302 303 303 305 307 311 314 317 320 322 325 328 329 330 331 332 333 333 333 334 335 335 336 337 337
272 272 272 272 272 270 270 269 268 269 269 268 268 268 267 267 267 266 265 263 262 262 262 263 265 266 267 266 265 263 262 261 260 260 260 260 261 262 263 266 270 269 268 269 271 271 273 275 278 283 288 290 289 288 289 292 295 297 299 300 301 302 303 304 307 310 313 316 319 321 325 327 328 330 331 332 332 333 334 335 336 336 337 339 338
271 271 272 273 273 273 272 272 272 272 272 271 270 270 269 268 267 265 264 263 264 265 266 268 269 269 268 266 264 263 262 262 261 261 262 262 262 263 264 266 268 267 266 268 270 271 272 274 277 280 285 288 288 287 288 290 292 295 297 299 300 301 302 304 307 310 313 315 318 321 324 326 327 330 331 331 331 333 334 335 337 337 338 340 340
269 269 269 269 270 271 272 273 274 274 273 273 272 271 269 267 266 265 265 267 268 270 270 270 270 269 268 266 265 264 262 261 260 260 261 262 262 263 263 265 266 266 267 269 270 271 272 272 274 277 282 286 287 285 286 288 290 293 296 297 298 300 301 303 306 309 312 314 317 320 323 325 327 330 331 331 331 333 334 336 337 339 340 341 341
267 267 267 267 268 269 271 271 272 273 273 272 271 270 268 267 266 267 268 270 272 273 273 273 271 270 268 268 267 266 263 262 261 260 260 260 261 262 263 265 266 267 269 269 269 268 268 269 271 275 280 284 284 283 283 286 289 291 294 296 297 298 299 302 305 308 311 313 316 319 322 324 327 329 330 330 331 333 335 337 338 340 341 342 342
265 265 265 266 267 269 270 271 271 272 271 271 270 269 269 270 270 271 272 273 274 275 275 274 272 271 270 270 270 270 268 265 263 261 259 258 258 261 264 266 267 268 269 269 267 264 264 266 269 273 277 281 282 281 282 284 287 290 293 295 296 297 298 301 304 307 309 312 315 319 322 324 327 329 329 330 331 333 335 337 339 340 342 343 343
264 264 264 266 267 269 270 272 272 271 271 270 270 271 272 272 272 273 273 274 275 275 275 275 274 273 273 273 272 270 268 265 262 261 261 260 261 264 268 270 270 269 270 269 266 262 262 264 267 270 275 278 279 279 280 283 285 289 292 293 294 295 296 299 303 306 308 311 314 318 321 323 325 327 328 329 331 333 335 337 338 341 343 344 344
266 265 265 266 268 269 271 272 272 271 271 271 272 273 273 273 273 273 273 273 274 274 274 275 275 275 275 274 272 270 268 268 267 267 266 266 267 269 270 271 270 269 270 268 264 261 261 263 265 268 272 276 278 278 279 281 284 287 290 292 292 293 295 298 302 305 307 310 313 317 319 321 324 326 327 328 330 333 335 337 338 341 343 345 345
268 267 267 267 268 270 270 271 271 273 274 275 276 275 275 274 273 272 272 272 272 273 274 275 276 276 276 274 272 270 269 270 271 269 268 267 268 268 268 268 267 267 268 267 262 258 258 261 263 266 271 274 276 276 277 279 282 286 289 290 290 291 294 298 301 304 306 309 312 315 318 321 323 325 325 327 330 333 335 337 338 341 343 345 346
270 269 268 269 269 270 271 272 274 276 277 276 275 273 273 272 271 270 271 271 273 274 274 275 276 276 275 274 273 271 269 269 269 267 266 265 265 264 265 264 262 262 265 263 257 253 255 258 261 264 269 272 274 275 275 277 280 284 286 288 288 289 293 298 301 303 305 307 311 314 317 320 322 323 324 326 329 332 335 336 338 340 343 345 346
271 271 271 271 272 273 274 276 277 276 275 274 273 272 271 270 269 269 270 271 273 274 274 274 275 275 274 273 273 272 270 269 267 266 265 264 263 263 264 262 258 258 259 257 251 249 253 256 259 262 267 270 272 272 273 275 279 282 285 287 287 290 294 297 299 301 303 306 310 313 316 319 321 321 322 325 328 331 334 336 338 340 342 344 345
271 273 274 275 276 277 277 277 276 275 273 273 272 270 269 268 268 269 271 272 273 273 273 274 274 273 273 273 272 272 271 270 269 268 267 265 264 264 263 260 257 255 254 252 248 247 250 254 257 261 265 268 269 270 271 274 278 282 285 286 287 290 294 295 297 299 301 304 308 312 314 317 318 319 321 323 326 329 332 335 338 340 341 343 345
272 273 275 276 276 277 276 275 274 273 271 269 268 267 267 268 269 271 272 272 272 272 272 272 272 272 271 271 271 271 271 272 271 270 268 266 266 265 262 259 255 252 252 251 248 248 250 253 256 258 262 266 267 268 270 273 277 282 284 285 286 289 291 292 294 297 299 303 306 309 312 314 316 317 319 321 324 327 331 334 337 339 341 343 345
272 273 274 274 274 274 274 273 272 271 270 270 270 270 271 271 271 272 272 272 272 273 273 273 272 271 270 270 269 269 270 271 271 270 269 267 265 263 260 256 252 251 251 250 249 249 251 252 253 256 261 264 265 266 268 272 276 281 283 283 285 287 289 291 293 296 298 301 304 306 309 312 314 316 318 320 322 326 329 333 336 338 340 343 345
273 273 274 274 274 273 272 271 271 272 273 273 274 274 273 273 272 272 273 274 274 275 274 273 271 270 270 270 269 269 269 269 269 269 268 266 264 260 256 252 249 249 249 249 248 248 249 250 251 255 259 262 263 264 267 271 275 280 282 283 285 287 289 290 292 294 296 299 301 303 306 309 312 314 316 318 321 324 328 331 334 336 339 342 345
274 275 276 275 274 272 271 271 273 274 274 274 274 274 274 274 274 274 274 275 275 274 273 272 271 271 271 271 271 270 268 268 267 267 267 265 262 258 253 248 246 246 247 247 247 247 248 249 251 254 257 259 261 263 266 269 274 279 281 283 285 287 287 288 289 292 293 295 297 300 303 307 310 312 314 316 319 323 326 329 332 335 339 342 343
279 279 278 276 273 272 273 273 273 273 273 274 276 276 277 277 276 276 276 276 276 275 275 275 274 275 274 273 272 270 268 266 265 265 264 263 260 254 249 245 243 243 244 245 246 247 247 249 251 253 255 257 260 262 264 268 273 278 281 283 284 285 285 285 286 288 290 292 294 297 301 305 308 310 313 315 318 321 324 327 331 334 338 340 341
282 281 279 277 275 274 273 272 272 273 275 277 278 278 278 277 277 277 278 278 277 277 277 277 277 276 275 274 272 270 268 266 264 263 263 262 259 254 248 243 241 242 244 245 245 246 247 248 250 251 253 256 258 260 263 267 272 276 280 281 282 282 282 282 284 286 287 289 292 295 299 303 306 308 311 314 317 319 322 325 329 333 336 338 339
281 281 281 279 276 274 273 274 276 278 279 279 278 277 276 277 278 279 279 278 278 278 278 278 277 277 276 275 273 271 268 265 263 262 262 261 259 254 247 242 240 242 244 245 245 246 247 248 249 250 252 254 257 259 263 266 271 275 278 280 281 280 280 280 282 284 285 287 290 293 297 301 303 306 309 311 314 317 320 323 327 331 334 336 338
279 278 278 277 276 276 278 280 282 282 281 280 279 278 278 280 281 282 282 282 282 281 280 280 279 278 277 276 275 272 269 266 262 260 259 258 256 252 246 242 241 242 244 244 245 246 248 249 249 249 251 254 256 259 262 266 270 274 278 279 279 279 278 279 281 282 284 286 288 290 294 298 300 302 306 309 311 314 318 322 326 329 332 334 337
Height
3072 3074 3075 3077 3079 3081 3083 3085 3086 3088 3089 3090 3091 3092 3094 3095 3096 3096 3095 3096 3097 3098 3099 3100 3101 3101 3102 3102 3102 3102 3102 3102 3102 3101 3101 3101 3101 3101 3101 3100 3099 3099 3098 3097 3096 3095 3093 3092 3091 3090 3089 3088 3086 3085 3083 3081 3079 3077 3074 3072 3069 3066 3063 3060 3056 3054 3051 3048 3045 3042 3040 3037 3035 3033 3031 3029 3027 3025 3023 3020 3018 3016 3014 3011 3007
3069 3071 3073 3075 3076 3078 3080 3082 3083 3085 3086 3087 3088 3089 3091 3092 3093 3094 3094 3094 3094 3095 3096 3097 3098 3098 3099 3099 3099 3099 3099 3099 3098 3098 3098 3098 3097 3097 3097 3096 3095 3095 3094 3093 3092 3091 3089 3088 3087 3086 3085 3083 3082 3080 3078 3076 3074 3072 3070 3068 3065 3061 3057 3053 3050 3047 3045 3043 3041 3038 3036 3034 3031 3029 3027 3025 3023 3020 3018 3016 3013 3011 3008 3005 3001
3067 3068 3070 3072 3073 3075 3077 3079 3080 3082 3083 3084 3085 3087 3088 3089 3091 3091 3091 3091 3092 3093 3094 3094 3095 3095 3096 3096 3096 3096 3096 3096 3095 3095 3094 3094 3093 3093 3093 3092 3092 3091 3090 3089 3088 3087 3085 3084 3083 3082 3081 3079 3078 3076 3074 3072 3070 3068 3066 3063 3059 3055 3051 3047 3044 3042 3040 3038 3036 3034 3032 3031 3029 3027 3025 3022 3019 3016 3014 3011 3008 3005 3001 2998 2995
3063 3065 3067 3069 3071 3073 3074 3076 3077 3078 3080 3081 3082 3084 3085 3086 3087 3087 3088 3088 3089 3090 3091 3092 3092 3092 3093 3093 3092 3092 3092 3092 3092 3091 3091 3090 3090 3089 3089 3089 3088 3087 3086 3085 3084 3082 3081 3080 3079 3078 3077 3075 3073 3072 3070 3068 3066 3063 3060 3057 3052 3048 3045 3043 3040 3038 3036 3034 3032 3030 3028 3027 3025 3023 3021 3018 3016 3013 3009 3006 3003 2999 2994 2990 2988
3060 3062 3065 3067 3069 3070 3072 3073 3074 3075 3076 3077 3078 3080 3081 3082 3083 3083 3084 3085 3086 3087 3088 3089 3089 3089 3089 3089 3089 3089 3088 3088 3088 3087 3087 3087 3086 3086 3085 3085 3084 3083 3082 3081 3079 3078 3077 3076 3075 3074 3072 3071 3069 3067 3065 3063 3061 3058 3054 3050 3046 3043 3041 3039 3037 3035 3032 3030 3028 3027 3025 3023 3021 3018 3015 3013 3011 3008 3005 3001 2996 2991 2987 2984 2982
3058 3060 3063 3064 3066 3068 3069 3070 3071 3072 3073 3074 3075 3076 3077 3078 3079 3080 3081 3082 3083 3084 3085 3085 3086 3086 3086 3086 3085 3085 3084 3084 3084 3084 3084 3083 3083 3082 3082 3081 3080 3079 3078 3076 3075 3074 3073 3072 3071 3069 3068 3066 3064 3062 3060 3058 3055 3051 3047 3044 3041 3039 3037 3035 3033 3031 3029 3027 3025 3023 3021 3019 3016 3013 3011 3008 3005 3002 2999 2995 2990 2985 2981 2978 2975
3055 3058 3060 3062 3063 3065 3066 3067 3068 3069 3070 3071 3072 3073 3074 3075 3076 3077 3078 3079 3080 3081 3082 3082 3082 3082 3082 3082 3081 3081 3081 3081 3081 3080 3080 3079 3079 3078 3077 3077 3076 3074 3074 3073 3071 3071 3069 3068 3066 3064 3063 3061 3060 3058 3055 3052 3048 3044 3042 3039 3037 3035 3033 3032 3030 3028 3026 3023 3021 3019 3016 3014 3011 3008 3006 3003 3000 2996 2991 2986 2983 2979 2974 2969 2967
3053 3055 3057 3059 3060 3062 3063 3064 3064 3065 3067 3068 3069 3070 3071 3072 3073 3074 3075 3076 3077 3078 3078 3078 3078 3078 3078 3078 3077 3077 3077 3077 3077 3076 3076 3076 3075 3074 3073 3072 3071 3070 3070 3069 3068 3066 3065 3063 3062 3060 3059 3057 3055 3052 3049 3045 3042 3039 3037 3035 3033 3031 3030 3028 3026 3024 3022 3019 3017 3014 3012 3009 3007 3004 3001 2998 2994 2990 2985 2979 2975 2971 2966 2962 2958
3050 3052 3054 3056 3057 3058 3059 3060 3061 3062 3063 3065 3066 3067 3067 3068 3069 3071 3072 3073 3074 3074 3074 3075 3075 3075 3074 3074 3074 3074 3073 3073 3073 3072 3072 3071 3071 3070 3069 3068 3067 3067 3066 3065 3063 3062 3060 3059 3057 3056 3054 3052 3049 3046 3042 3040 3037 3035 3033 3031 3029 3028 3026 3025 3023 3020 3017 3015 3012 3010 3007 3004 3002 2999 2995 2991 2986 2981 2977 2972 2968 2964 2960 2956 2953
3047 3049 3051 3053 3054 3055 3056 3057 3057 3058 3060 3061 3062 3063 3064 3065 3066 3068 3069 3069 3070 3070 3071 3071 3071 3071 3071 3070 3070 3070 3070 3069 3069 3068 3068 3067 3067 3066 3065 3064 3063 3063 3062 3060 3059 3057 3056 3054 3052 3051 3049 3046 3043 3040 3037 3035 3033 3031 3029 3027 3025 3024 3022 3021 3018 3015 3012 3010 3007 3004 3001 2999 2996 2992 2988 2983 2978 2974 2970 2965 2961 2957 2953 2950 2947
3044 3046 3048 3049 3050 3051 3052 3053 3054 3055 3056 3057 3058 3059 3060 3061 3063 3064 3065 3065 3066 3066 3067 3067 3067 3067 3067 3066 3066 3066 3066 3065 3065 3064 3064 3063 3063 3062 3061 3060 3059 3058 3057 3056 3054 3053 3051 3049 3047 3046 3044 3041 3038 3035 3033 3031 3029 3027 3025 3023 3021 3019 3018 3016 3013 3010 3007 3005 3002 2999 2996 2993 2990 2985 2980 2976 2972 2967 2964 2960 2955 2951 2947 2942 2938
3041 3043 3044 3045 3047 3048 3049 3049 3050 3051 3052 3053 3054 3056 3056 3058 3059 3060 3061 3061 3062 3062 3063 3063 3063 3063 3063 3062 3062 3062 3062 3061 3061 3061 3060 3060 3059 3058 3057 3056 3055 3054 3052 3051 3049 3048 3046 3044 3043 3041 3038 3035 3033 3031 3029 3028 3026 3024 3021 3019 3017 3016 3013 3010 3007 3005 3002 3000 2997 2994 2991 2987 2983 2979 2974 2970 2966 2962 2958 2955 2951 2946 2942 2935 2929
3037 3039 3040 3042 3043 3044 3045 3046 3046 3047 3048 3049 3051 3052 3053 3054 3055 3056 3057 3057 3058 3058 3059 3059 3060 3059 3059 3059 3059 3058 3058 3058 3057 3057 3056 3055 3054 3053 3052 3051 3050 3049 3048 3046 3045 3043 3041 3040 3038 3036 3034 3031 3029 3027 3026 3024 3023 3021 3018 3016 3014 3012 3009 3006 3003 3000 2998 2995 2991 2988 2985 2981 2977 2973 2969 2964 2960 2957 2953 2950 2946 2940 2935 2930 2923
3034 3035 3036 3038 3039 3040 3041 3041 3042 3043 3044 3045 3046 3048 3049 3050 3051 3052 3053 3053 3054 3055 3056 3056 3056 3055 3055 3055 3054 3054 3054 3053 3053 3052 3051 3050 3049 3049 3048 3047 3046 3044 3043 3042 3040 3039 3037 3035 3034 3032 3029 3027 3025 3024 3022 3021 3020 3017 3015 3013 3011 3009 3006 3003 2999 2997 2994 2990 2987 2983 2980 2976 2972 2968 2964 2960 2955 2952 2949 2945 2940 2935 2929 2923 2917
3029 3031 3032 3033 3034 3035 3036 3037 3038 3039 3040 3041 3043 3044 3045 3046 3047 3048 3049 3050 3051 3051 3051 3051 3052 3051 3051 3051 3050 3049 3049 3049 3048 3048 3047 3046 3045 3044 3043 3042 3041 3040 3038 3037 3036 3034 3033 3031 3029 3027 3025 3023 3022 3020 3018 3018 3016 3014 3011 3009 3007 3005 3002 2999 2995 2993 2990 2986 2983 2980 2976 2973 2969 2964 2960 2955 2951 2948 2944 2939 2934 2929 2923 2918 2914
3025 3026 3027 3028 3029 3030 3031 3033 3034 3035 3036 3037 3038 3040 3041 3042 3043 3044 3045 3046 3046 3047 3047 3048 3048 3047 3046 3046 3045 3045 3044 3044 3043 3043 3042 3042 3041 3040 3039 3037 3036 3035 3034 3033 3032 3030 3029 3027 3025 3023 3021 3019 3018 3016 3014 3014 3013 3010 3007 3005 3003 3001 2997 2994 2991 2989 2986 2982 2979 2976 2972 2968 2964 2959 2954 2950 2947 2944 2940 2935 2930 2924 2920 2916 2912
3020 3021 3022 3023 3025 3026 3027 3029 3030 3031 3032 3033 3035 3036 3038 3039 3039 3040 3041 3042 3042 3043 3043 3043 3042 3042 3041 3041 3041 3040 3039 3039 3039 3038 3038 3037 3037 3035 3034 3033 3032 3031 3030 3029 3028 3026 3025 3023 3021 3020 3018 3016 3014 3012 3010 3010 3008 3005 3002 3000 2999 2997 2993 2990 2988 2985 2982 2978 2975 2971 2968 2964 2959 2954 2950 2946 2942 2939 2935 2930 2925 2919 2915 2911 2907
3016 3017 3018 3019 3021 3023 3024 3024 3025 3026 3028 3029 3031 3032 3033 3034 3035 3036 3036 3037 3037 3038 3038 3037 3037 3037 3037 3037 3037 3036 3035 3034 3034 3034 3033 3033 3032 3031 3030 3028 3027 3026 3026 3025 3024 3022 3020 3019 3018 3016 3014 3012 3010 3008 3006 3006 3004 3000 2997 2996 2995 2993 2990 2987 2985 2982 2978 2975 2971 2967 2963 2959 2954 2950 2946 2942 2938 2934 2929 2924 2919 2914 2909 2904 2899
3012 3013 3015 3016 3017 3018 3019 3019 3020 3022 3023 3025 3027 3028 3029 3029 3030 3030 3031 3031 3032 3032 3032 3031 3032 3032 3032 3032 3032 3031 3030 3030 3030 3029 3029 3028 3027 3026 3025 3024 3023 3022 3021 3021 3019 3018 3016 3015 3013 3012 3010 3008 3006 3003 3002 3001 2999 2995 2993 2992 2991 2989 2986 2983 2981 2978 2974 2971 2967 2964 2960 2955 2951 2947 2943 2939 2934 2930 2924 2919 2914 2909 2904 2899 2893
3008 3010 3011 3012 3012 3013 3014 3015 3016 3017 3019 3021 3022 3023 3023 3023 3024 3025 3026 3026 3026 3026 3026 3027 3027 3027 3027 3027 3026 3026 3025 3024 3024 3024 3024 3023 3023 3022 3020 3019 3018 3018 3017 3016 3014 3013 3012 3010 3009 3008 3006 3004 3002 2999 2997 2996 2994 2991 2988 2988 2987 2984 2981 2979 2976 2973 2970 2966 2963 2960 2956 2951 2947 2943 2939 2934 2929 2924 2920 2914 2909 2904 2899 2894 2888
3005 3006 3006 3007 3008 3008 3009 3010 3011 3012 3014 3015 3016 3016 3017 3018 3019 3020 3020 3021 3021 3021 3021 3022 3022 3022 3022 3021 3021 3021 3020 3019 3019 3019 3019 3018 3018 3017 3016 3015 3014 3013 3012 3011 3010 3008 3007 3005 3004 3003 3001 2999 2997 2994 2992 2991 2989 2986 2984 2983 2982 2980 2976 2974 2971 2968 2964 2961 2958 2954 2950 2946 2942 2938 2933 2928 2924 2920 2916 2910 2904 2900 2894 2888 2883
3001 3001 3002 3002 3003 3004 3005 3005 3006 3007 3008 3009 3010 3011 3012 3013 3014 3014 3014 3015 3015 3015 3015 3016 3016 3016 3016 3016 3016 3015 3015 3014 3014 3014 3014 3013 3013 3012 3011 3009 3008 3008 3007 3006 3005 3003 3002 3001 2999 2998 2996 2994 2992 2989 2987 2985 2983 2981 2980 2979 2977 2974 2971 2968 2966 2962 2959 2956 2953 2949 2945 2941 2937 2932 2928 2923 2920 2916 2912 2907 2901 2896 2890 2884 2877
2996 2996 2997 2998 2998 2999 3000 3001 3002 3002 3003 3003 3004 3006 3007 3007 3007 3008 3008 3008 3009 3009 3009 3009 3009 3010 3010 3010 3010 3010 3009 3009 3008 3008 3008 3008 3007 3007 3005 3004 3003 3002 3002 3001 3000 2998 2997 2996 2994 2993 2991 2989 2987 2984 2982 2980 2978 2977 2975 2974 2971 2968 2966 2963 2961 2958 2954 2952 2948 2944 2940 2936 2932 2928 2924 2920 2916 2913 2908 2903 2898 2892 2886 2880 2873
2991 2991 2992 2993 2994 2995 2996 2996 2997 2997 2998 2998 2998 2999 3000 3000 3000 3001 3001 3001 3002 3002 3003 3003 3003 3003 3003 3004 3004 3004 3003 3003 3003 3002 3002 3002 3001 3000 2999 2998 2998 2997 2996 2996 2995 2993 2992 2991 2989 2987 2986 2984 2982 2980 2978 2976 2974 2972 2971 2969 2966 2963 2961 2959 2957 2954 2951 2948 2944 2940 2936 2933 2929 2925 2921 2916 2913 2909 2904 2898 2893 2888 2883 2877 2871
2986 2987 2987 2988 2989 2990 2990 2991 2991 2992 2992 2992 2992 2993 2993 2993 2993 2994 2994 2994 2994 2995 2995 2996 2996 2996 2996 2997 2997 2997 2997 2997 2997 2997 2996 2995 2994 2994 2993 2993 2992 2992 2991 2990 2989 2988 2986 2985 2984 2983 2981 2979 2977 2975 2973 2972 2970 2968 2966 2964 2961 2959 2957 2955 2953 2950 2947 2944 2940 2937 2933 2929 2925 2921 2917 2913 2909 2905 2900 2895 2890 2885 2880 2874 2869
2981 2982 2982 2983 2984 2984 2984 2985 2985 2986 2986 2986 2986 2986 2986 2986 2987 2987 2987 2987 2987 2987 2988 2988 2989 2989 2989 2990 2991 2991 2991 2990 2990 2990 2990 2989 2988 2988 2988 2987 2986 2986 2986 2985 2984 2983 2981 2980 2979 2978 2976 2975 2973 2971 2969 2967 2965 2963 2961 2959 2957 2955 2953 2951 2949 2946 2944 2940 2937 2933 2929 2926 2922 2917 2913 2909 2905 2900 2896 2893 2889 2883 2878 2872 2868
2977 2978 2978 2979 2979 2979 2979 2980 2980 2980 2980 2980 2980 2980 2980 2980 2980 2980 2980 2981 2981 2981 2982 2982 2982 2982 2982 2984 2985 2984 2984 2983 2983 2984 2983 2983 2983 2982 2982 2981 2980 2980 2980 2979 2978 2977 2976 2975 2974 2973 2972 2970 2968 2966 2965 2963 2960 2959 2957 2955 2953 2951 2950 2948 2945 2943 2940 2937 2933 2929 2926 2922 2918 2913 2909 2905 2901 2896 2893 2890 2886 2881 2876 2871 2866
2973 2973 2973 2973 2973 2974 2974 2974 2974 2974 2974 2974 2974 2974 2975 2974 2974 2975 2976 2977 2976 2976 2976 2975 2976 2977 2977 2978 2978 2977 2976 2976 2977 2978 2978 2978 2977 2976 2975 2974 2973 2974 2974 2973 2973 2972 2971 2970 2969 2969 2967 2966 2964 2962 2961 2958 2956 2955 2953 2950 2949 2947 2946 2944 2942 2939 2936 2933 2929 2926 2922 2918 2913 2910 2906 2902 2898 2893 2890 2886 2882 2878 2873 2868 2863
2967 2967 2968 2967 2968 2968 2968 2968 2968 2968 2969 2969 2969 2969 2969 2969 2969 2970 2971 2971 2971 2971 2970 2969 2970 2971 2971 2970 2970 2970 2969 2970 2972 2973 2972 2970 2969 2968 2967 2967 2967 2967 2967 2967 2967 2966 2966 2965 2964 2964 2963 2961 2960 2958 2956 2954 2952 2950 2948 2946 2944 2944 2942 2940 2937 2934 2931 2928 2925 2921 2917 2914 2909 2906 2903 2899 2895 2891 2887 2883 2879 2875 2870 2865 2860
2960 2961 2961 2962 2963 2963 2962 2963 2963 2962 2963 2963 2963 2963 2963 2963 2963 2964 2964 2965 2965 2965 2964 2963 2964 2964 2963 2962 2963 2963 2963 2965 2966 2965 2962 2961 2961 2960 2960 2959 2960 2960 2960 2960 2961 2961 2961 2960 2959 2959 2958 2956 2955 2953 2951 2950 2947 2945 2943 2942 2941 2940 2938 2935 2932 2929 2926 2923 2920 2917 2913 2910 2906 2904 2900 2897 2893 2888 2884 2881 2876 2871 2867 2862 2857
2954 2955 2956 2956 2957 2956 2956 2956 2957 2956 2956 2956 2956 2956 2956 2956 2957 2958 2958 2958 2958 2958 2958 2957 2957 2957 2956 2956 2957 2957 2956 2957 2957 2955 2954 2954 2954 2953 2952 2952 2953 2954 2954 2954 2954 2955 2955 2954 2954 2953 2953 2951 2950 2948 2947 2945 2943 2941 2939 2938 2937 2935 2933 2931 2928 2925 2922 2919 2915 2912 2910 2907 2904 2901 2897 2893 2890 2886 2882 2878 2873 2868 2863 2858 2853
2948 2949 2950 2950 2950 2950 2949 2950 2950 2949 2950 2950 2950 2950 2951 2950 2951 2952 2952 2952 2952 2952 2952 2951 2950 2950 2950 2950 2950 2949 2949 2949 2949 2948 2948 2948 2946 2945 2945 2945 2946 2947 2947 2946 2947 2949 2949 2949 2948 2948 2947 2946 2945 2943 2941 2940 2938 2937 2935 2934 2933 2931 2929 2927 2924 2921 2917 2914 2912 2909 2906 2903 2900 2897 2893 2890 2887 2884 2880 2876 2871 2866 2861 2855 2850
2943 2944 2944 2944 2944 2943 2943 2944 2944 2944 2944 2944 2944 2944 2944 2944 2945 2946 2946 2945 2944 2944 2944 2944 2944 2944 2944 2943 2942 2942 2942 2942 2942 2942 2942 2941 2939 2939 2939 2939 2940 2940 2939 2938 2941 2943 2944 2943 2943 2942 2942 2941 2939 2938 2937 2935 2934 2932 2931 2930 2928 2927 2925 2922 2919 2916 2913 2911 2908 2905 2902 2900 2897 2894 2890 2886 2884 2881 2877 2873 2868 2863 2857 2852 2847
2937 2937 2938 2937 2937 2937 2937 2937 2938 2938 2938 2938 2938 2938 2938 2938 2939 2939 2938 2937 2937 2937 2937 2938 2938 2937 2936 2936 2935 2935 2934 2934 2935 2935 2935 2934 2933 2932 2932 2932 2932 2932 2931 2932 2935 2938 2938 2938 2937 2937 2936 2935 2934 2933 2932 2931 2930 2928 2927 2925 2924 2922 2920 2918 2915 2912 2909 2907 2905 2902 2899 2897 2894 2890 2887 2883 2880 2877 2874 2869 2865 2860 2854 2849 2844
2930 2930 2931 2931 2930 2930 2930 2931 2931 2931 2931 2931 2932 2932 2932 2932 2931 2930 2930 2930 2930 2930 2930 2931 2930 2929 2928 2927 2927 2927 2927 2927 2928 2928 2928 2927 2927 2926 2924 2924 2924 2925 2925 2926 2930 2933 2933 2932 2932 2932 2931 2930 2929 2929 2928 2927 2926 2924 2923 2921 2920 2918 2916 2913 2910 2908 2906 2903 2901 2898 2896 2893 2890 2886 2883 2880 2877 2874 2870 2866 2861 2856 2851 2846 2841
2923 2923 2924 2923 2923 2923 2924 2924 2924 2924 2925 2925 2925 2925 2925 2925 2924 2923 2923 2922 2922 2922 2922 2923 2922 2921 2920 2919 2918 2920 2920 2920 2921 2921 2920 2920 2920 2918 2916 2916 2918 2919 2920 2922 2925 2928 2928 2927 2927 2927 2926 2925 2925 2924 2923 2922 2921 2920 2919 2917 2915 2914 2911 2909 2906 2904 2902 2899 2897 2894 2892 2889 2886 2883 2880 2877 2874 2870 2866 2862 2858 2853 2848 2843 2838
2916 2916 2916 2917 2917 2917 2917 2917 2917 2918 2918 2917 2917 2917 2917 2917 2917 2916 2915 2914 2914 2914 2914 2914 2914 2913 2912 2911 2912 2913 2914 2914 2914 2913 2912 2912 2912 2909 2908 2910 2913 2914 2914 2916 2919 2921 2921 2922 2922 2921 2921 2921 2920 2920 2919 2918 2917 2916 2914 2913 2911 2909 2907 2905 2902 2900 2898 2896 2893 2891 2888 2885 2882 2879 2876 2874 2871 2867 2863 2859 2855 2850 2845 2840 2835
2908 2908 2909 2910 2910 2910 2910 2910 2910 2910 2910 2910 2910 2909 2909 2909 2909 2908 2907 2906 2906 2906 2906 2906 2906 2905 2905 2905 2906 2906 2907 2906 2905 2904 2904 2904 2903 2903 2903 2905 2908 2909 2909 2911 2913 2914 2916 2916 2916 2916 2916 2916 2915 2915 2914 2914 2913 2911 2910 2908 2907 2905 2903 2901 2899 2896 2894 2892 2889 2887 2884 2881 2878 2876 2873 2871 2868 2864 2860 2856 2852 2848 2843 2838 2833
2901 2902 2903 2903 2903 2903 2903 2903 2903 2903 2903 2903 2903 2903 2902 2902 2901 2901 2900 2899 2899 2899 2899 2899 2898 2898 2899 2899 2899 2899 2898 2897 2897 2897 2897 2897 2898 2898 2899 2900 2902 2903 2903 2905 2907 2908 2910 2910 2911 2911 2911 2911 2911 2910 2910 2909 2908 2907 2905 2904 2902 2901 2899 2897 2894 2892 2890 2888 2886 2883 2881 2878 2875 2872 2870 2867 2864 2861 2857 2853 2849 2845 2841 2836 2831
2895 2896 2896 2896 2896 2896 2897 2896 2896 2896 2897 2897 2896 2896 2895 2895 2895 2894 2893 2892 2892 2891 2892 2891 2891 2891 2892 2892 2891 2891 2891 2890 2890 2891 2891 2892 2892 2893 2893 2894 2896 2897 2898 2899 2901 2903 2904 2904 2905 2906 2906 2906 2906 2905 2905 2904 2903 2902 2901 2899 2898 2897 2895 2892 2890 2888 2886 2884 2882 2879 2877 2874 2871 2869 2866 2864 2861 2858 2854 2851 2847 2842 2838 2833 2829
2890 2890 2890 2890 2890 2890 2890 2890 2891 2891 2891 2890 2890 2890 2889 2889 2888 2887 2886 2885 2885 2885 2885 2885 2885 2885 2885 2884 2884 2884 2884 2883 2883 2884 2885 2885 2886 2886 2887 2888 2890 2892 2893 2894 2896 2897 2898 2898 2899 2900 2900 2901 2901 2900 2900 2900 2899 2897 2896 2895 2894 2892 2890 2888 2886 2884 2882 2880 2878 2875 2873 2870 2867 2865 2863 2860 2857 2854 2851 2848 2844 2840 2835 2831 2827
2885 2885 2885 2885 2885 2885 2885 2885 2886 2886 2885 2884 2884 2884 2883 2883 2882 2881 2880 2880 2879 2879 2879 2879 2879 2878 2878 2878 2878 2877 2877 2877 2877 2877 2878 2879 2879 2880 2881 2883 2885 2886 2887 2888 2889 2891 2891 2892 2893 2894 2895 2895 2895 2895 2895 2895 2894 2892 2891 2890 2889 2887 2885 2883 2882 2880 2878 2876 2874 2872 2869 2867 2864 2862 2860 2857 2854 2851 2848 2845 2841 2837 2833 2829 2825
2879 2879 2880 2880 2879 2880 2880 2880 2880 2879 2879 2879 2878 2878 2877 2877 2876 2875 2875 2874 2874 2874 2873 2873 2873 2872 2872 2872 2871 2871 2870 2870 2870 2871 2871 2872 2873 2874 2876 2878 2879 2880 2881 2882 2883 2884 2885 2886 2887 2889 2889 2890 2890 2890 2890 2889 2888 2887 2886 2885 2884 2882 2880 2879 2878 2876 2874 2872 2870 2868 2866 2864 2861 2859 2857 2854 2851 2848 2845 2842 2839 2835 2831 2828 2824
2874 2874 2874 2874 2874 2874 2874 2874 2874 2874 2873 2873 2873 2872 2872 2871 2871 2870 2870 2869 2868 2868 2867 2867 2867 2867 2866 2866 2866 2865 2864 2865 2865 2865 2866 2866 2868 2869 2871 2872 2873 2874 2875 2876 2877 2878 2879 2880 2882 2883 2884 2884 2884 2885 2885 2884 2883 2882 2881 2880 2879 2878 2876 2875 2874 2872 2870 2869 2867 2865 2863 2861 2858 2856 2854 2851 2848 2845 2842 2839 2836 2832 2829 2825 2821
2869 2869 2869 2869 2869 2869 2869 2869 2869 2868 2868 2868 2867 2866 2866 2866 2865 2865 2864 2863 2863 2862 2862 2862 2862 2861 2861 2861 2860 2860 2860 2860 2860 2860 2860 2861 2862 2864 2865 2866 2868 2869 2869 2870 2872 2872 2873 2875 2876 2877 2878 2879 2879 2879 2879 2879 2878 2877 2877 2875 2874 2873 2872 2871 2869 2868 2866 2865 2863 2861 2860 2858 2855 2853 2850 2848 2845 2842 2839 2836 2833 2830 2827 2823 2819
2864 2864 2864 2864 2864 2864 2864 2864 2864 2863 2863 2862 2862 2861 2861 2860 2860 2859 2858 2858 2857 2857 2856 2856 2856 2855 2855 2855 2855 2855 2855 2854 2854 2855 2855 2856 2857 2858 2859 2861 2862 2863 2864 2865 2866 2867 2868 2869 2871 2872 2873 2874 2874 2874 2874 2874 2873 2872 2871 2870 2869 2868 2867 2866 2865 2864 2862 2861 2859 2858 2856 2854 2852 2850 2847 2845 2842 2840 2837 2834 2831 2827 2824 2821 2817
2860 2860 2860 2860 2860 2859 2859 2859 2858 2858 2857 2857 2856 2855 2855 2854 2854 2853 2853 2852 2852 2851 2851 2851 2850 2850 2850 2850 2849 2849 2850 2849 2849 2850 2850 2851 2851 2852 2853 2855 2856 2857 2858 2859 2860 2861 2862 2864 2865 2867 2868 2868 2868 2869 2869 2868 2868 2867 2866 2865 2864 2863 2862 2862 2861 2860 2858 2857 2856 2854 2853 2850 2848 2846 2844 2842 2839 2837 2834 2831 2828 2825 2822 2818 2815
2855 2855 2855 2855 2854 2854 2854 2854 2853 2852 2852 2851 2851 2850 2849 2849 2848 2848 2847 2847 2846 2846 2845 2845 2845 2844 2844 2844 2844 2844 2844 2844 2844 2844 2845 2845 2846 2846 2847 2849 2851 2851 2852 2853 2854 2855 2857 2858 2860 2861 2862 2863 2863 2864 2863 2863 2863 2862 2861 2861 2859 2859 2858 2857 2857 2856 2855 2853 2852 2851 2849 2847 2845 2843 2841 2839 2836 2834 2832 2829 2826 2823 2820 2816 2813
2851 2850 2850 2850 2849 2849 2849 2848 2848 2847 2847 2846 2845 2845 2844 2843 2843 2842 2842 2841 2840 2840 2840 2839 2839 2839 2839 2839 2839 2839 2839 2838 2838 2839 2839 2840 2840 2841 2841 2843 2845 2845 2846 2847 2848 2850 2851 2853 2854 2856 2856 2857 2858 2858 2858 2858 2858 2857 2856 2856 2855 2854 2854 2853 2852 2851 2850 2849 2848 2846 2845 2843 2841 2839 2837 2835 2833 2831 2829 2826 2824 2820 2817 2814 2812
2846 2846 2845 2845 2844 2844 2843 2843 2843 2842 2842 2841 2840 2839 2839 2838 2837 2837 2836 2836 2835 2835 2834 2834 2834 2833 2833 2833 2833 2833 2833 2833 2833 2833 2834 2834 2834 2835 2836 2837 2838 2839 2840 2841 2843 2844 2846 2847 2849 2850 2851 2852 2853 2853 2853 2853 2852 2852 2852 2851 2850 2850 2849 2849 2848 2847 2846 2845 2843 2842 2841 2839 2837 2836 2834 2832 2830 2828 2826 2824 2821 2818 2815 2812 2809
2841 2841 2840 2840 2839 2839 2839 2839 2838 2838 2837 2836 2835 2835 2834 2834 2833 2833 2832 2831 2830 2830 2829 2828 2828 2828 2828 2828 2828 2828 2828 2828 2828 2827 2827 2828 2828 2829 2830 2831 2833 2833 2834 2836 2837 2839 2840 2842 2843 2844 2845 2846 2847 2848 2848 2847 2847 2847 2846 2846 2845 2845 2845 2844 2843 2842 2841 2840 2839 2838 2836 2835 2833 2832 2830 2829 2827 2825 2823 2820 2818 2815 2813 2810 2807